Retour au catalogue

KUIPER-00432

ActifCommunicationsLEO
NORAD 68937·PAYLOAD·🇺🇸 United States

Lancé Apr 30, 2026 depuis Guiana Space Centre

Loading…

Prochains Passages (prochaines 24 heures)

TLE

FraisSource: CelesTrak SupGP

Époque: Sep 14, 2026, 22:23 UTC

1 68937C 26098U   26257.93273148  .00004028  00000+0  52734-3 0  2571
2 68937  51.9007  18.6924 0000522 103.8194 142.6767 14.79919038    17

Suivez KUIPER-00432 en temps réel avec AllMySat

Download on the App Store